�N����,����,�~����,�C��,���x,�C��,����,���ϕ���,�ő�u�ԕ���,�ő厞����,���˗�,�I�_���x,�n�����x,�ő啗���N��,DTYPE
"16/06/18","00:10",0.0,18.5,92.5,1007.4,310.4,1.6,2.0,322.4,0.00,17.3,21.8,"00:01:28",1
"16/06/18","00:20",0.0,18.4,92.3,1007.4,311.7,1.7,2.7,320.3,0.00,17.2,21.8,"00:13:28",1
"16/06/18","00:30",0.0,18.5,92.2,1007.1,313.9,1.7,2.4,317.6,0.00,17.3,21.7,"00:24:32",1
"16/06/18","00:40",0.0,18.4,92.0,1007.1,306.5,1.3,1.8,316.0,0.00,17.1,21.7,"00:31:20",1
"16/06/18","00:50",0.0,18.4,92.2,1007.4,318.6,1.5,2.6,341.1,0.00,17.2,21.7,"00:41:44",1
"16/06/18","01:00",0.0,18.4,92.2,1007.6,319.7,1.5,2.4,327.9,0.00,17.2,21.7,"00:59:28",1
"16/06/18","01:10",0.0,18.3,92.2,1007.4,320.1,1.5,2.1,320.3,0.00,17.1,21.8,"01:04:16",1
"16/06/18","01:20",0.0,18.2,92.5,1007.4,311.6,1.6,2.1,321.0,0.00,17.0,21.7,"01:18:56",1
"16/06/18","01:30",0.0,18.2,92.4,1007.6,299.2,1.3,1.8,306.1,0.00,17.0,21.7,"01:22:48",1
"16/06/18","01:40",0.0,18.0,92.5,1007.6,295.5,1.2,1.6,298.8,0.00,16.8,21.5,"01:33:52",1
"16/06/18","01:50",0.0,18.0,92.8,1007.6,315.5,1.6,2.2,319.0,0.00,16.9,21.5,"01:45:12",1
"16/06/18","02:00",0.0,18.1,92.7,1007.6,317.9,1.7,2.4,314.5,0.00,16.9,21.4,"01:52:40",1
"16/06/18","02:10",0.0,18.1,92.6,1008.1,311.2,1.6,2.2,310.2,0.00,16.9,21.3,"02:00:48",1
"16/06/18","02:20",0.0,18.1,92.6,1007.6,312.4,1.7,2.5,322.2,0.00,16.9,21.2,"02:16:24",1
"16/06/18","02:30",0.0,18.2,92.3,1008.1,306.0,1.6,2.0,312.1,0.00,17.0,21.5,"02:21:04",1
"16/06/18","02:40",0.0,18.1,92.0,1008.3,303.4,1.6,2.5,323.3,0.00,16.8,21.3,"02:31:12",1
"16/06/18","02:50",0.0,18.0,92.0,1008.3,302.5,1.2,2.0,312.5,0.00,16.7,21.3,"02:47:12",1
"16/06/18","03:00",0.0,17.8,92.2,1008.3,297.4,0.8,2.0,349.8,0.00,16.6,21.1,"02:50:02",1
"16/06/18","03:10",0.0,17.8,92.8,1008.6,325.7,1.6,3.1,329.1,0.00,16.7,21.0,"03:06:56",1
"16/06/18","03:20",0.0,17.8,92.8,1008.3,322.0,1.7,2.7,341.7,0.00,16.7,21.2,"03:14:08",1
"16/06/18","03:30",0.0,17.7,92.9,1008.6,315.6,1.7,2.5,334.8,0.00,16.6,21.1,"03:21:12",1
"16/06/18","03:40",0.0,17.8,92.8,1008.8,312.2,1.8,2.4,310.1,0.00,16.7,21.1,"03:30:48",1
"16/06/18","03:50",0.0,17.8,92.8,1008.6,313.3,1.6,2.1,317.0,0.00,16.7,21.0,"03:40:16",1
"16/06/18","04:00",0.0,17.7,93.0,1008.6,316.2,1.3,2.5,318.0,0.00,16.6,20.9,"03:57:04",1
"16/06/18","04:10",0.0,17.9,92.8,1008.6,314.1,1.3,3.6,337.8,0.00,16.8,20.9,"04:04:32",1
"16/06/18","04:20",0.0,17.8,92.6,1009.0,304.6,1.1,1.7,302.7,0.00,16.6,20.9,"04:15:12",1
"16/06/18","04:30",0.0,17.8,92.7,1008.8,311.0,1.5,2.2,291.0,0.00,16.6,20.9,"04:27:04",1
"16/06/18","04:40",0.0,17.7,92.4,1009.0,324.3,1.5,2.7,331.9,0.00,16.5,20.8,"04:30:16",1
"16/06/18","04:50",0.0,17.6,92.5,1008.8,313.3,1.1,1.9,320.7,0.00,16.4,20.7,"04:46:00",1
"16/06/18","05:00",0.0,17.6,92.8,1009.5,315.2,1.1,1.8,323.6,0.00,16.5,20.7,"04:55:36",1
"16/06/18","05:10",0.0,17.5,93.0,1009.5,308.6,1.0,1.9,316.9,0.00,16.4,20.6,"05:04:08",1
"16/06/18","05:20",0.0,17.5,92.8,1009.7,318.3,1.3,2.1,341.0,0.00,16.4,20.6,"05:12:56",1
"16/06/18","05:30",0.0,17.5,92.8,1009.5,317.8,1.2,2.2,341.6,0.00,16.4,20.6,"05:21:36",1
"16/06/18","05:40",0.0,17.7,93.0,1009.5,321.6,1.3,2.0,340.8,0.00,16.6,20.6,"05:34:24",1
"16/06/18","05:50",0.0,18.0,92.6,1009.5,323.5,1.3,2.6,336.1,0.01,16.8,20.6,"05:47:52",1
"16/06/18","06:00",0.0,18.6,91.8,1009.7,325.7,1.1,1.9,342.5,0.02,17.3,20.7,"05:55:12",1
"16/06/18","06:10",0.0,19.2,89.5,1010.0,340.6,1.5,2.6,336.3,0.03,17.5,20.5,"06:09:28",1
"16/06/18","06:20",0.0,19.8,88.0,1010.0,333.6,1.2,2.6,337.0,0.04,17.8,20.7,"06:11:20",1
"16/06/18","06:30",0.0,20.4,86.1,1009.7,323.8,1.3,2.5,342.6,0.05,18.0,20.7,"06:21:36",1
"16/06/18","06:40",0.0,20.4,86.2,1010.2,322.4,1.2,2.7,332.9,0.07,18.1,21.0,"06:32:56",1
"16/06/18","06:50",0.0,21.0,85.7,1010.0,318.2,0.7,2.0,9.0,0.09,18.6,20.9,"06:41:36",1
"16/06/18","07:00",0.0,21.6,80.8,1009.7,347.1,0.7,1.9,336.0,0.13,18.2,20.9,"06:55:20",1
"16/06/18","07:10",0.0,21.6,79.0,1010.2,7.8,0.8,1.7,356.6,0.17,17.8,21.0,"07:08:08",1
"16/06/18","07:20",0.0,22.1,77.2,1010.0,3.8,0.6,1.8,349.0,0.20,18.0,21.1,"07:16:16",1
"16/06/18","07:30",0.0,22.8,78.6,1010.0,335.1,0.6,1.9,348.5,0.22,18.9,21.4,"07:23:04",1
"16/06/18","07:40",0.0,23.2,74.0,1009.7,184.1,0.3,0.9,352.4,0.26,18.4,21.4,"07:38:00",1
"16/06/18","07:50",0.0,23.3,73.9,1009.7,353.1,0.6,1.6,1.0,0.24,18.4,21.8,"07:45:28",1
"16/06/18","08:00",0.0,23.7,73.1,1009.5,39.5,0.3,1.0,65.7,0.28,18.6,22.0,"07:51:12",1
"16/06/18","08:10",0.0,23.5,73.9,1009.5,357.1,0.6,1.4,19.6,0.22,18.6,21.9,"08:00:48",1
"16/06/18","08:20",0.0,24.0,70.8,1009.3,125.1,0.3,1.2,141.9,0.26,18.4,22.1,"08:12:16",1
"16/06/18","08:30",0.0,24.6,68.2,1009.3,93.5,0.5,1.6,114.5,0.36,18.4,22.2,"08:26:24",1
"16/06/18","08:40",0.0,24.7,68.0,1008.8,10.3,0.6,1.6,51.9,0.32,18.4,22.7,"08:35:28",1
"16/06/18","08:50",0.0,25.7,67.0,1008.3,71.3,0.6,1.7,82.7,0.41,19.2,22.7,"08:46:08",1
"16/06/18","09:00",0.0,25.5,66.4,1008.8,110.5,0.7,1.4,78.9,0.38,18.8,22.7,"08:51:04",1
"16/06/18","09:10",0.0,26.1,66.2,1009.0,154.2,0.6,2.0,189.3,0.46,19.3,23.2,"09:04:40",1
"16/06/18","09:20",0.0,26.8,64.9,1009.3,70.3,0.7,1.8,37.1,0.46,19.7,23.4,"09:17:44",1
"16/06/18","09:30",0.0,26.9,65.4,1009.3,88.7,0.8,1.7,128.2,0.49,19.9,23.7,"09:27:12",1
"16/06/18","09:40",0.0,27.8,59.4,1009.7,133.4,0.7,1.9,130.2,0.52,19.2,23.9,"09:38:16",1
"16/06/18","09:50",0.0,28.7,60.6,1009.7,113.9,0.7,2.4,180.2,0.52,20.4,24.3,"09:49:52",1
"16/06/18","10:00",0.0,28.1,56.8,1009.7,168.0,0.8,2.2,178.3,0.43,18.8,24.5,"09:52:16",1
"16/06/18","10:10",0.0,28.2,55.2,1010.0,67.3,0.7,2.1,127.6,0.39,18.4,24.7,"10:08:40",1
"16/06/18","10:20",0.0,28.4,53.4,1009.7,181.2,0.8,3.4,209.6,0.42,18.1,24.8,"10:17:28",1
"16/06/18","10:30",0.0,28.3,54.5,1009.7,224.4,1.7,4.5,221.1,0.47,18.3,25.2,"10:29:36",1
"16/06/18","10:40",0.0,28.1,51.5,1009.0,218.6,1.8,3.7,223.2,0.45,17.2,25.1,"10:31:36",1
"16/06/18","10:50",0.0,28.5,52.7,1009.0,220.8,1.5,3.3,194.5,0.52,17.9,25.4,"10:47:52",1
"16/06/18","11:00",0.0,29.1,49.8,1008.8,223.9,1.1,3.4,229.3,0.52,17.6,25.6,"10:50:56",1
"16/06/18","11:10",0.0,29.2,52.2,1009.0,194.6,1.2,3.4,228.0,0.55,18.4,25.7,"11:04:24",1
"16/06/18","11:20",0.0,29.7,48.7,1009.3,147.3,1.2,2.6,203.0,0.59,17.8,26.0,"11:10:24",1
"16/06/18","11:30",0.0,30.4,50.2,1009.3,186.8,0.6,1.9,213.4,0.61,18.9,26.4,"11:24:40",1
"16/06/18","11:40",0.0,30.6,46.1,1009.3,73.5,0.7,2.0,359.2,0.61,17.7,26.5,"11:31:04",1
"16/06/18","11:50",0.0,30.5,46.7,1009.5,20.1,1.0,2.7,220.3,0.61,17.9,26.7,"11:47:28",1
"16/06/18","12:00",0.0,31.2,44.5,1010.0,103.4,0.6,1.9,17.3,0.61,17.7,27.1,"11:50:40",1
"16/06/18","12:10",0.0,31.6,43.3,1009.7,63.1,0.3,1.2,10.1,0.61,17.7,27.3,"12:09:52",1
"16/06/18","12:20",0.0,31.5,43.7,1009.5,357.6,0.8,2.6,217.8,0.61,17.7,27.2,"12:18:56",1
"16/06/18","12:30",0.0,31.0,43.4,1009.3,195.2,1.7,3.5,210.5,0.61,17.1,27.5,"12:24:00",1
"16/06/18","12:40",0.0,31.7,42.1,1009.5,101.0,0.8,2.0,115.8,0.61,17.3,27.8,"12:30:56",1
"16/06/18","12:50",0.0,31.9,39.6,1009.0,222.6,0.5,1.9,40.8,0.61,16.5,27.7,"12:44:40",1
"16/06/18","13:00",0.0,32.1,40.8,1009.3,252.7,1.1,3.3,208.7,0.59,17.2,27.9,"12:58:48",1
"16/06/18","13:10",0.0,31.9,38.0,1009.3,215.5,1.0,3.5,237.7,0.59,15.9,27.9,"13:01:52",1
"16/06/18","13:20",0.0,32.2,32.8,1009.3,164.0,1.0,2.4,212.2,0.60,13.8,27.7,"13:16:56",1
"16/06/18","13:30",0.0,32.1,36.1,1009.0,189.2,1.6,3.6,208.4,0.58,15.2,27.4,"13:27:52",1
"16/06/18","13:40",0.0,32.8,36.8,1008.6,183.3,1.5,3.5,192.9,0.54,16.2,27.3,"13:31:52",1
"16/06/18","13:50",0.0,32.1,36.0,1008.6,164.8,1.6,3.1,171.7,0.51,15.2,27.4,"13:49:20",1
"16/06/18","14:00",0.0,33.1,35.0,1008.8,145.0,1.1,2.4,120.8,0.55,15.6,27.3,"13:54:32",1
"16/06/18","14:10",0.0,32.5,33.4,1008.6,148.1,1.1,2.5,155.8,0.49,14.4,27.2,"14:00:16",1
"16/06/18","14:20",0.0,32.9,32.9,1008.3,12.9,1.2,3.2,21.1,0.52,14.5,27.4,"14:19:12",1
"16/06/18","14:30",0.0,33.2,31.6,1008.3,89.3,0.6,1.8,99.8,0.47,14.1,27.4,"14:26:00",1
"16/06/18","14:40",0.0,32.8,34.9,1007.8,150.0,1.1,2.1,221.6,0.48,15.3,27.7,"14:34:16",1
"16/06/18","14:50",0.0,32.5,36.9,1007.8,136.8,1.5,3.1,160.7,0.46,15.9,27.8,"14:40:02",1
"16/06/18","15:00",0.0,32.6,38.4,1007.6,188.4,1.5,3.4,224.4,0.43,16.6,27.7,"14:59:20",1
"16/06/18","15:10",0.0,32.5,33.9,1007.8,199.7,1.1,2.6,226.7,0.42,14.6,27.7,"15:07:36",1
"16/06/18","15:20",0.0,32.7,35.6,1008.1,188.5,0.7,2.5,359.2,0.40,15.6,27.8,"15:16:40",1
"16/06/18","15:30",0.0,33.1,33.8,1007.8,265.9,0.3,1.6,7.5,0.40,15.1,27.9,"15:24:40",1
"16/06/18","15:40",0.0,33.4,36.5,1007.8,313.0,0.5,1.6,81.9,0.36,16.6,27.8,"15:33:52",1
"16/06/18","15:50",0.0,33.3,34.3,1007.8,214.6,1.2,3.3,215.1,0.32,15.5,28.0,"15:49:44",1
"16/06/18","16:00",0.0,32.3,36.8,1007.4,199.2,1.1,3.6,227.3,0.29,15.7,27.8,"15:59:04",1
"16/06/18","16:10",0.0,31.5,37.3,1007.1,198.7,1.8,3.2,206.4,0.20,15.2,27.7,"16:00:56",1
"16/06/18","16:20",0.0,31.4,39.5,1006.7,220.9,0.7,2.4,193.7,0.11,16.0,27.9,"16:10:08",1
"16/06/18","16:30",0.0,31.7,39.1,1006.4,220.5,0.2,1.4,166.5,0.19,16.1,27.7,"16:23:52",1
"16/06/18","16:40",0.0,31.8,38.4,1006.7,216.5,0.6,3.1,211.4,0.19,15.9,27.7,"16:37:44",1
"16/06/18","16:50",0.0,31.6,37.4,1006.7,177.4,0.2,1.8,215.8,0.09,15.4,27.8,"16:49:04",1
"16/06/18","17:00",0.0,31.4,36.2,1006.7,258.0,0.6,2.7,205.2,0.07,14.7,27.6,"16:59:28",1
"16/06/18","17:10",0.0,31.1,39.4,1006.0,298.3,0.5,0.8,204.7,0.05,15.7,27.7,"17:00:32",1
"16/06/18","17:20",0.0,30.9,41.2,1006.0,214.1,1.0,2.7,229.8,0.05,16.2,27.3,"17:17:12",1
"16/06/18","17:30",0.0,30.5,43.5,1005.7,220.3,0.8,2.5,221.1,0.06,16.7,27.3,"17:20:32",1
"16/06/18","17:40",0.0,30.5,45.8,1005.5,220.9,1.0,1.9,227.9,0.06,17.5,27.6,"17:38:24",1
"16/06/18","17:50",0.0,30.3,46.0,1005.5,227.5,0.3,1.4,202.4,0.05,17.4,27.3,"17:46:08",1
"16/06/18","18:00",0.0,29.9,47.9,1005.5,221.9,0.2,1.0,199.4,0.04,17.7,27.1,"17:50:16",1
"16/06/18","18:10",0.0,29.5,52.6,1005.0,265.1,0.1,0.9,224.2,0.03,18.8,27.1,"18:06:32",1
"16/06/18","18:20",0.0,28.9,53.7,1005.2,329.8,0.2,0.9,333.2,0.02,18.6,26.8,"18:15:12",1
"16/06/18","18:30",0.0,28.3,57.1,1005.0,320.8,0.3,0.9,315.4,0.02,19.0,26.7,"18:27:04",1
"16/06/18","18:40",0.0,27.7,61.4,1005.2,320.8,0.6,1.3,343.1,0.01,19.6,26.6,"18:31:52",1
"16/06/18","18:50",0.0,27.0,62.5,1005.7,331.1,0.6,1.0,343.6,0.00,19.3,26.5,"18:44:48",1
"16/06/18","19:00",0.0,26.4,62.5,1006.2,326.9,0.5,1.0,348.2,0.00,18.7,26.4,"18:50:24",1
"16/06/18","19:10",0.0,25.9,63.1,1006.2,341.9,0.7,1.4,2.5,0.00,18.4,26.5,"19:08:56",1
"16/06/18","19:20",0.0,25.8,61.6,1006.7,354.7,1.1,2.4,11.3,0.00,17.9,26.1,"19:14:56",1
"16/06/18","19:30",0.0,25.5,61.9,1006.9,53.9,0.3,1.0,341.8,0.00,17.7,25.9,"19:29:28",1
"16/06/18","19:40",0.0,25.3,58.1,1007.1,43.0,0.3,1.1,116.9,0.00,16.5,25.9,"19:38:00",1
"16/06/18","19:50",0.0,25.5,62.4,1007.4,329.8,1.3,2.0,236.8,0.00,17.8,25.9,"19:40:32",1
"16/06/18","20:00",0.0,24.9,63.9,1006.9,331.8,1.2,2.6,353.8,0.00,17.6,25.8,"19:52:40",1
"16/06/18","20:10",0.0,24.6,64.7,1007.4,326.5,1.3,2.0,339.3,0.00,17.6,25.7,"20:04:32",1
"16/06/18","20:20",0.0,24.4,65.4,1007.6,311.7,1.0,1.6,316.9,0.00,17.5,25.6,"20:11:44",1
"16/06/18","20:30",0.0,23.9,68.1,1008.1,303.0,0.8,1.3,318.6,0.00,17.7,25.5,"20:20:08",1
"16/06/18","20:40",0.0,23.4,68.2,1007.8,283.5,0.8,1.1,298.7,0.00,17.2,25.3,"20:35:28",1
"16/06/18","20:50",0.0,23.0,68.7,1008.3,298.0,1.2,1.8,313.9,0.00,17.0,25.2,"20:42:16",1
"16/06/18","21:00",0.0,22.9,69.6,1008.6,316.7,1.3,2.0,322.5,0.00,17.1,25.0,"20:51:44",1
"16/06/18","21:10",0.0,22.6,69.1,1008.6,282.1,0.6,1.6,317.7,0.00,16.7,24.8,"21:07:20",1
"16/06/18","21:20",0.0,22.3,70.9,1008.6,297.4,0.8,1.2,308.0,0.00,16.8,24.8,"21:10:16",1
"16/06/18","21:30",0.0,21.9,71.4,1008.6,285.8,0.7,1.1,306.7,0.00,16.5,24.6,"21:29:12",1
"16/06/18","21:40",0.0,21.7,74.4,1009.0,284.4,0.7,1.1,308.9,0.00,17.0,24.6,"21:34:24",1
"16/06/18","21:50",0.0,21.3,74.7,1009.0,317.8,1.1,2.1,343.6,0.00,16.7,24.6,"21:49:04",1
"16/06/18","22:00",0.0,21.4,74.2,1009.3,313.0,0.8,1.3,334.7,0.00,16.7,24.3,"21:50:16",1
"16/06/18","22:10",0.0,21.3,75.0,1009.3,315.9,1.1,2.0,340.9,0.00,16.7,24.2,"22:02:56",1
"16/06/18","22:20",0.0,21.3,75.1,1009.3,328.8,1.2,1.9,342.2,0.00,16.8,24.1,"22:11:52",1
"16/06/18","22:30",0.0,21.3,74.4,1009.0,309.1,0.8,1.4,7.7,0.00,16.6,24.1,"22:22:56",1
"16/06/18","22:40",0.0,21.1,74.0,1009.3,301.7,0.6,1.2,315.5,0.00,16.3,24.1,"22:36:16",1
"16/06/18","22:50",0.0,20.9,75.6,1009.5,296.8,0.7,1.3,325.8,0.00,16.5,23.8,"22:40:32",1
"16/06/18","23:00",0.0,20.7,76.5,1009.3,287.5,0.8,1.8,334.3,0.00,16.5,23.8,"22:56:00",1
"16/06/18","23:10",0.0,20.6,77.2,1009.3,300.4,0.7,1.3,336.9,0.00,16.5,23.6,"23:04:40",1
"16/06/18","23:20",0.0,20.4,77.1,1009.5,292.8,0.8,1.2,311.2,0.00,16.3,23.7,"23:11:44",1
"16/06/18","23:30",0.0,20.3,78.7,1009.3,294.8,0.8,1.1,295.7,0.00,16.5,23.6,"23:26:32",1
"16/06/18","23:40",0.0,20.1,78.7,1009.5,289.0,0.7,1.2,320.8,0.00,16.3,23.4,"23:31:04",1
"16/06/18","23:50",0.0,20.1,78.2,1009.3,303.9,0.8,1.2,325.0,0.00,16.2,23.2,"23:41:52",1
"16/06/18","24:00",0.0,20.1,79.1,1009.0,314.1,1.0,1.6,349.8,0.00,16.4,23.3,"23:57:44",1
